CZ-6A DEB, 56687

Orbit data source: Space-Track

CZ-6A DEB, 56687 is space debris in SSO originally from a launch on Fri, 11 Nov 2022 UTC launched from the Taiyaun Space Center, China (TSC). Debris objects in space refer to the collection of defunct objects orbiting the Earth. Examples of debris include non-operational satellites, rocket bodies, and fragments generated from explosions, collisions, or faulty payload assembly.

Loading next visibility...
Identifier
56687, 2022-151AHP
Orbit
SSO
Country
Flag of CNCN / PRC
Related business
Manufacturer
SAST
Mission
Spacecraft
Bus & Motor
Unknown
Mass
Unknown
Launch date (UTC)
2022-11-11 (3 years ago)
Launch vehicle
Unknown
Launch site
Taiyaun Space Center, China (TSC)
Object type
Payload
Rocket body
Debris
Shape & HBR
Unknown shape, 0.1 m
Radar Cross Section
Small (<0.1 m²)

Expand to show TLE details & history
Last TLE update: 2 days ago

TLE from 2 days ago
0 CZ-6A DEB
1 56687U 22151AHP 25348.39576756  .00000671  00000-0  50342-3 0  9994
2 56687  98.9114 321.3924 0123758 229.8472 129.1798 13.94348121132380
Epoch: 2025-12-14T09:29Z
TLE epoch observation values (Epoch: 2025-12-14T09:29:54.317Z)
Latitude
-0.00004°
Longitude
95.60679°
Altitude
973.989 km
Speed
7.336 km/s
True Right ascension
21h 25m 34s
True Declination
0° 00' 00"
Sunlit
Object was in daylight at epoch
Visualization orbit readout
Latitude
Unknown
Longitude
Unknown
Altitude
Unknown
Speed
Unknown
Apparent Right ascension
Unknown
Apparent Declination
Unknown
Sunlit
N/A
Visualization observer readout
Local Sidereal Time
08:19:42
Azimuth
Unknown
Elevation
Unknown
Doppler factor
Unknown
Orbital elements
Apogee altitude
1,000.839 km
Perigee altitude
820.43 km
Semi-major axis
7,288.772 km
Eccentricity
0.01238
Inclination
98.9114°
RAAN
321.3924°
Arg. of periapsis
229.8472°
True anomaly
130.2684°
Mean anomaly
129.1798°
Eccentric anomaly
129.72517°
Mean motion
3.48788 °/min
Orbital period
103.21 mins
BSTAR
0.00050342
Loading maneuver chart data...
Computing Atmospheric mass density...
Loading historical data...
Loading historical data...
Loading historical data...
Loading historical data...
Loading historical data...
Loading historical data...
Loading historical data...

Documentation

Showing up to 5 results
|